Darstellungsparameter: Aktuell verwendete Einstellungen:
Skalierung der Graphiken ... ?
xyx+y,   Skalierungsfaktor:      Skalierung: Modus: x, Faktor: 1
Darstellungszeitraum ... ?
Vom - - bis: - -   Zeitraum: 16.05.2021 - 17.05.2021
Min/Max/Avg-Anzeige ... ?
Zeige MMA aktuell
Zeige MMA Monat
Zeige MMA alles
Zeige --A aktuell
Zeige --A Monat
Zeige --A alles
Keine MMA-Anzeige
MMA:
Average (ber die Originaldaten)
MMA-Basis: 23.02.2003 - 30.09.2020
Quicknavigation für Darstellung... ?
Tage:      1T, 2T, 3T, 5T -1T -2T -3T -5T +1T +2T +3T +5T
Wochen: 1W, 2W, 3W -1W -2W -3W +1W +2W +3W
Monate: 1M, 3M, 6M -1M -3M -6M +1M +3M +6M
Jahre:    1J, 3J, 5J, 10J -1J -3J -5J -10J +1J +3J +5J +10J
Nutze für die Darstellung ... ?
Originaldaten oder Mittelwerte auf ...
Stundenbasis Tagesbasis Wochenbasis
Monatsbasis Jahresbasis      Datenbasis: Original-Daten
Darstellen als:
Statistik (Auto) Statistik J:M      Darstellung:

Der gewünschte Datumsbereich war nicht gültig/verfügbar und wurde korrigiert....
Das angegebene Enddatum (13.11.2030 23:59:59) liegt in der Zukunft.
Das angegebene Startdatum (13.10.2030 00:00:00) liegt in der Zukunft.


Zur Graphik,    zurück zur Übersicht aller Sensoren.
 
Tabellarische Datenbersicht: ?
 
Sensor: Nr:Datum:Temp:Abs-Feuchte:Windchill:Wind:
Aussen-T/F 1 16-05-2021 02:00:00 8.3 C 7.92 g/m*3 8.3 C 1.6 km/h
2 16-05-2021 02:05:00 8.3 C 7.92 g/m*3 8.3 C 4.8 km/h
3 16-05-2021 02:10:00 8.3 C 7.92 g/m*3 8.3 C 1.6 km/h
4 16-05-2021 02:15:00 8.3 C 7.92 g/m*3 8.3 C 3.2 km/h
5 16-05-2021 02:20:00 8.3 C 7.92 g/m*3 8.3 C 3.2 km/h
6 16-05-2021 02:25:00 8.3 C 7.92 g/m*3 8.3 C 3.2 km/h
7 16-05-2021 02:30:00 8.4 C 8.06 g/m*3 8.4 C 4.8 km/h
8 16-05-2021 02:35:00 8.4 C 8.06 g/m*3 8.4 C 4.8 km/h
9 16-05-2021 02:40:00 8.5 C 8.11 g/m*3 8.5 C 3.2 km/h
10 16-05-2021 02:45:00 8.5 C 8.11 g/m*3 8.5 C 4.8 km/h
11 16-05-2021 02:50:00 8.5 C 8.11 g/m*3 8.5 C 4.8 km/h
12 16-05-2021 02:55:00 8.5 C 8.11 g/m*3 8.5 C 3.2 km/h
13 16-05-2021 03:00:00 8.4 C 8.06 g/m*3 8.4 C 3.2 km/h
14 16-05-2021 03:05:00 8.4 C 8.06 g/m*3 8.4 C 3.2 km/h
15 16-05-2021 03:10:00 8.4 C 8.06 g/m*3 8.4 C 4.8 km/h
16 16-05-2021 03:15:00 8.4 C 8.06 g/m*3 8.4 C 3.2 km/h
17 16-05-2021 03:20:00 8.4 C 8.06 g/m*3 8.4 C 3.2 km/h
18 16-05-2021 03:25:00 8.4 C 8.06 g/m*3 8.4 C 4.8 km/h
19 16-05-2021 03:30:00 8.5 C 8.11 g/m*3 8.5 C 4.8 km/h
20 16-05-2021 03:35:00 8.5 C 8.11 g/m*3 8.5 C 3.2 km/h
21 16-05-2021 03:40:00 8.6 C 8.16 g/m*3 8.6 C 4.8 km/h
22 16-05-2021 03:45:00 8.7 C 8.22 g/m*3 8.7 C 4.8 km/h
23 16-05-2021 03:50:00 8.8 C 8.36 g/m*3 7.98 C 6.4 km/h
24 16-05-2021 03:55:00 8.9 C 8.41 g/m*3 8.9 C 4.8 km/h
25 16-05-2021 04:00:00 9 C 8.46 g/m*3 9 C 4.8 km/h
Sensor: Nr:Datum:Temp:Abs-Feuchte:Windchill:Wind:
Aussen-T/F 26 16-05-2021 04:05:00 9.1 C 8.52 g/m*3 9.1 C 3.2 km/h
27 16-05-2021 04:10:00 9.1 C 8.52 g/m*3 7.93 C 8.1 km/h
28 16-05-2021 04:15:00 9.2 C 8.57 g/m*3 8.05 C 8.1 km/h
29 16-05-2021 04:20:00 9.3 C 8.63 g/m*3 8.16 C 8.1 km/h
30 16-05-2021 04:25:00 9.4 C 8.59 g/m*3 8.68 C 6.4 km/h
31 16-05-2021 04:30:00 9.4 C 8.59 g/m*3 9.4 C 3.2 km/h
32 16-05-2021 04:35:00 9.4 C 8.59 g/m*3 8.68 C 6.4 km/h
33 16-05-2021 04:40:00 9.3 C 8.54 g/m*3 9.3 C 3.2 km/h
34 16-05-2021 04:45:00 9.2 C 8.39 g/m*3 9.2 C 3.2 km/h
35 16-05-2021 04:50:00 9.1 C 8.34 g/m*3 9.1 C 3.2 km/h
36 16-05-2021 04:55:00 8.9 C 8.23 g/m*3 8.9 C 3.2 km/h
37 16-05-2021 05:00:00 8.9 C 8.23 g/m*3 8.9 C 3.2 km/h
38 16-05-2021 05:05:00 8.8 C 8.18 g/m*3 8.8 C 0 km/h
39 16-05-2021 05:10:00 8.7 C 8.13 g/m*3 8.7 C 1.6 km/h
40 16-05-2021 05:15:00 8.7 C 8.13 g/m*3 8.7 C 1.6 km/h
41 16-05-2021 05:20:00 8.7 C 8.22 g/m*3 8.7 C 0 km/h
42 16-05-2021 05:25:00 8.7 C 8.22 g/m*3 8.7 C 1.6 km/h
43 16-05-2021 05:30:00 8.7 C 8.22 g/m*3 8.7 C 1.6 km/h
44 16-05-2021 05:35:00 8.7 C 8.22 g/m*3 8.7 C 1.6 km/h
45 16-05-2021 05:40:00 8.7 C 8.22 g/m*3 8.7 C 3.2 km/h
46 16-05-2021 05:45:00 8.7 C 8.22 g/m*3 8.7 C 0 km/h
47 16-05-2021 05:50:00 8.8 C 8.27 g/m*3 8.8 C 0 km/h
48 16-05-2021 05:55:00 8.8 C 8.27 g/m*3 8.8 C 0 km/h
49 16-05-2021 06:00:00 8.9 C 8.32 g/m*3 8.9 C 0 km/h
50 16-05-2021 06:05:00 8.9 C 8.32 g/m*3 8.9 C 0 km/h
Sensor: Nr:Datum:Temp:Abs-Feuchte:Windchill:Wind:
Aussen-T/F 51 16-05-2021 06:10:00 9 C 8.38 g/m*3 9 C 0 km/h
52 16-05-2021 06:15:00 9 C 8.38 g/m*3 9 C 3.2 km/h
53 16-05-2021 06:20:00 9.1 C 8.43 g/m*3 9.1 C 1.6 km/h
54 16-05-2021 06:25:00 9.1 C 8.43 g/m*3 9.1 C 1.6 km/h
55 16-05-2021 06:30:00 9.1 C 8.52 g/m*3 9.1 C 3.2 km/h
56 16-05-2021 06:35:00 9.2 C 8.57 g/m*3 9.2 C 0 km/h
57 16-05-2021 06:40:00 9.2 C 8.57 g/m*3 9.2 C 1.6 km/h
58 16-05-2021 06:45:00 9.3 C 8.63 g/m*3 9.3 C 0 km/h
59 16-05-2021 06:50:00 9.4 C 8.68 g/m*3 9.4 C 0 km/h
60 16-05-2021 06:55:00 9.6 C 8.79 g/m*3 9.6 C 0 km/h
61 16-05-2021 07:00:00 9.7 C 8.85 g/m*3 9.7 C 0 km/h
62 16-05-2021 07:05:00 9.8 C 8.91 g/m*3 9.8 C 0 km/h
63 16-05-2021 07:10:00 9.9 C 8.96 g/m*3 9.9 C 0 km/h
64 16-05-2021 07:15:00 10 C 9.02 g/m*3 10 C 1.6 km/h
65 16-05-2021 07:20:00 10.2 C 9.14 g/m*3 10.2 C 1.6 km/h
66 16-05-2021 07:25:00 10.3 C 9.19 g/m*3 10.3 C 1.6 km/h
67 16-05-2021 07:30:00 10.4 C 9.25 g/m*3 10.4 C 0 km/h
68 16-05-2021 07:35:00 10.5 C 9.21 g/m*3 10.5 C 3.2 km/h
69 16-05-2021 07:40:00 10.6 C 9.27 g/m*3 10.6 C 0 km/h
70 16-05-2021 07:45:00 10.6 C 9.17 g/m*3 10.6 C 3.2 km/h
71 16-05-2021 07:50:00 10.7 C 9.33 g/m*3 10.7 C 0 km/h
72 16-05-2021 07:55:00 10.7 C 9.33 g/m*3 10.7 C 0 km/h
73 16-05-2021 08:00:00 10.7 C 9.33 g/m*3 10.7 C 0 km/h
74 16-05-2021 08:05:00 10.8 C 9.39 g/m*3 10.8 C 0 km/h
75 16-05-2021 08:10:00 10.8 C 9.19 g/m*3 10.8 C 0 km/h
Sensor: Nr:Datum:Temp:Abs-Feuchte:Windchill:Wind:
Aussen-T/F 76 16-05-2021 08:15:00 10.8 C 9.19 g/m*3 10.8 C 0 km/h
77 16-05-2021 08:20:00 10.8 C 9.19 g/m*3 10.8 C 0 km/h
78 16-05-2021 08:25:00 10.8 C 9.19 g/m*3 10.8 C 0 km/h
79 16-05-2021 08:30:00 10.9 C 9.25 g/m*3 10.9 C 0 km/h
80 16-05-2021 08:35:00 10.9 C 9.25 g/m*3 10.9 C 0 km/h
81 16-05-2021 08:40:00 11.1 C 9.37 g/m*3 11.1 C 0 km/h
82 16-05-2021 08:45:00 11.2 C 9.33 g/m*3 11.2 C 0 km/h
83 16-05-2021 08:50:00 11.3 C 9.38 g/m*3 11.3 C 3.2 km/h
84 16-05-2021 08:55:00 11.3 C 9.28 g/m*3 11.3 C 0 km/h
85 16-05-2021 09:00:00 11.4 C 9.44 g/m*3 11.4 C 0 km/h
86 16-05-2021 09:05:00 11.5 C 9.5 g/m*3 11.5 C 0 km/h
87 16-05-2021 09:10:00 11.6 C 9.56 g/m*3 11.6 C 0 km/h
88 16-05-2021 09:15:00 11.7 C 9.62 g/m*3 11.7 C 0 km/h
89 16-05-2021 09:20:00 11.8 C 9.68 g/m*3 11.8 C 0 km/h
90 16-05-2021 09:25:00 11.8 C 9.68 g/m*3 11.8 C 1.6 km/h
91 16-05-2021 09:30:00 11.7 C 9.62 g/m*3 11.7 C 20.9 km/h
92 16-05-2021 09:35:00 11.4 C 9.34 g/m*3 11.4 C 20.9 km/h
93 16-05-2021 09:40:00 11.1 C 9.17 g/m*3 11.1 C 12.9 km/h
94 16-05-2021 09:45:00 10.8 C 8.99 g/m*3 9.64 C 9.7 km/h
95 16-05-2021 09:50:00 10.6 C 8.98 g/m*3 10.6 C 4.8 km/h
96 16-05-2021 09:55:00 10.4 C 8.87 g/m*3 9.83 C 6.4 km/h
97 16-05-2021 10:00:00 10.3 C 8.81 g/m*3 9.72 C 6.4 km/h
98 16-05-2021 10:05:00 10.3 C 8.91 g/m*3 10.3 C 4.8 km/h
99 16-05-2021 10:10:00 10.5 C 9.12 g/m*3 10.5 C 1.6 km/h
100 16-05-2021 10:15:00 10.6 C 9.17 g/m*3 10.6 C 1.6 km/h
Sensor: Nr:Datum:Temp:Abs-Feuchte:Windchill:Wind:
Aussen-T/F 101 16-05-2021 10:20:00 10.7 C 9.23 g/m*3 10.7 C 3.2 km/h
102 16-05-2021 10:25:00 10.8 C 9.29 g/m*3 10.8 C 0 km/h
103 16-05-2021 10:30:00 11 C 9.41 g/m*3 11 C 4.8 km/h
104 16-05-2021 10:35:00 11.2 C 9.53 g/m*3 11.2 C 4.8 km/h
105 16-05-2021 10:40:00 11.4 C 9.75 g/m*3 11.4 C 0 km/h
106 16-05-2021 10:45:00 11.6 C 9.87 g/m*3 11.6 C 4.8 km/h
107 16-05-2021 10:50:00 11.6 C 9.77 g/m*3 11.6 C 9.7 km/h
108 16-05-2021 10:55:00 11.6 C 9.77 g/m*3 11.6 C 3.2 km/h
109 16-05-2021 11:00:00 11.7 C 9.83 g/m*3 11.7 C 6.4 km/h
110 16-05-2021 11:05:00 11.8 C 10 g/m*3 11.8 C 3.2 km/h
111 16-05-2021 11:10:00 12 C 10.02 g/m*3 12 C 8.1 km/h
112 16-05-2021 11:15:00 12.1 C 10.08 g/m*3 12.1 C 8.1 km/h
113 16-05-2021 11:20:00 12.3 C 10.21 g/m*3 12.3 C 1.6 km/h
114 16-05-2021 11:25:00 12.6 C 10.4 g/m*3 12.6 C 0 km/h
115 16-05-2021 11:30:00 12.7 C 10.46 g/m*3 12.7 C 11.3 km/h
116 16-05-2021 11:35:00 12.6 C 10.29 g/m*3 12.6 C 9.7 km/h
117 16-05-2021 11:40:00 12.4 C 10.05 g/m*3 12.4 C 9.7 km/h
118 16-05-2021 11:45:00 12.4 C 9.94 g/m*3 12.4 C 11.3 km/h
119 16-05-2021 11:50:00 12.6 C 10.07 g/m*3 12.6 C 9.7 km/h
120 16-05-2021 11:55:00 12.6 C 10.07 g/m*3 12.6 C 8.1 km/h
121 16-05-2021 12:00:00 12.6 C 9.74 g/m*3 12.6 C 11.3 km/h
122 16-05-2021 12:05:00 12.8 C 9.97 g/m*3 12.8 C 11.3 km/h
123 16-05-2021 12:10:00 12.9 C 10.03 g/m*3 12.9 C 11.3 km/h
124 16-05-2021 12:15:00 12.9 C 9.92 g/m*3 12.9 C 14.5 km/h
125 16-05-2021 12:20:00 12.7 C 9.57 g/m*3 12.7 C 25.7 km/h
Sensor: Nr:Datum:Temp:Abs-Feuchte:Windchill:Wind:
Aussen-T/F 126 16-05-2021 12:25:00 12.6 C 9.62 g/m*3 12.6 C 12.9 km/h
127 16-05-2021 12:30:00 12.7 C 9.91 g/m*3 12.7 C 8.1 km/h
128 16-05-2021 12:35:00 12.7 C 9.8 g/m*3 12.7 C 9.7 km/h
129 16-05-2021 12:40:00 12.8 C 9.74 g/m*3 12.8 C 9.7 km/h
130 16-05-2021 12:45:00 13.1 C 9.93 g/m*3 13.1 C 12.9 km/h
131 16-05-2021 12:50:00 13.4 C 9.88 g/m*3 13.4 C 9.7 km/h
132 16-05-2021 12:55:00 13.6 C 9.77 g/m*3 13.6 C 16.1 km/h
133 16-05-2021 13:00:00 13.9 C 10.07 g/m*3 13.9 C 12.9 km/h
134 16-05-2021 13:05:00 14.2 C 9.77 g/m*3 14.2 C 14.5 km/h
135 16-05-2021 13:10:00 14.5 C 9.95 g/m*3 14.5 C 16.1 km/h
136 16-05-2021 13:15:00 14.7 C 9.69 g/m*3 14.7 C 14.5 km/h
137 16-05-2021 13:20:00 14.8 C 9.37 g/m*3 14.8 C 14.5 km/h
138 16-05-2021 13:25:00 15 C 9.62 g/m*3 15 C 16.1 km/h
139 16-05-2021 13:30:00 15.1 C 9.55 g/m*3 15.1 C 14.5 km/h
140 16-05-2021 13:35:00 15.3 C 9.79 g/m*3 15.3 C 11.3 km/h
141 16-05-2021 13:40:00 15.4 C 9.72 g/m*3 15.4 C 11.3 km/h
142 16-05-2021 13:45:00 15.6 C 9.84 g/m*3 15.6 C 11.3 km/h
143 16-05-2021 13:50:00 15.6 C 9.44 g/m*3 15.6 C 16.1 km/h
144 16-05-2021 13:55:00 15.7 C 9.5 g/m*3 15.7 C 14.5 km/h
145 16-05-2021 14:00:00 15.7 C 9.1 g/m*3 15.7 C 25.7 km/h
146 16-05-2021 14:05:00 15.8 C 9.42 g/m*3 15.8 C 14.5 km/h

Legende:
   Min
   Max


Maximal/Minimal-Werte vom 23.02.2003 - 30.09.2020

Sensor Min Max Avg
Temp
(Aussen-T/F)
-16.4 °C
20-12-2009  01:30:01
40.4 °C
25-07-2019  16:20:00
11.32 °C

Die Daten stammen von einer Davis Vantage Pro 2 Wetter-Station und werden unter Linux mit der Software wview2wettercgi und aufbereitet. Alle Angaben erfolgen ohne Gewähr für ihre Vollständigkeit oder Richtigkeit.
Kontakt: Rainer Krienke krienke@uni-koblenz.de . Meine Webseiten an der Uni Koblenz oder privat.
Version: $Revision: 0.78 $